Pueblo, CO

5:20 AM MDT on May 29, 2017 (GMT -0600)
Pueblo Memorial

Weather History for KPUB - July, 2013

Change the Weather History Date:

Sunday, July 28, 2013

  Actual Average Record
Temperature  
Mean Temperature 70 °F 76 °F  
Max Temperature 80 °F 92 °F 103 °F (1978)
Min Temperature 59 °F 59 °F 51 °F (1913)
Degree Days  
Heating Degree Days 0 0  
Month to date heating degree days 0 0  
Since 1 June heating degree days 17 25  
Since 1 July heating degree days 0 0  
Cooling Degree Days 5 11  
Month to date cooling degree days 328 303  
Year to date cooling degree days 704 512  
Since 1 June cooling degree days 631 478  
Growing Degree Days 19 (Base 50)    
Moisture  
Dew Point 57 °F    
Average Humidity 69    
Maximum Humidity 90    
Minimum Humidity 47    
Precipitation  
Precipitation 0.02 in 0.08 in 1.13 in (1984)
Month to date precipitation 1.66 1.83  
Year to date precipitation 3.86 7.68  
Snow  
Snow 0.00 in 0.00 in 0.00 in (2002)
Month to date snowfall 0.0 0.0  
Since 1 June snowfall T 0.0  
Since 1 July snowfall 0.0 0.0  
Snow Depth 0.00 in    
Sea Level Pressure  
Sea Level Pressure 29.88 in    
Wind  
Wind Speed 8 mph (SE)    
Max Wind Speed 24 mph    
Max Gust Speed 29 mph    
Visibility 10 miles    
Events Rain    
T = Trace of Precipitation, MM = Missing Value Source: NWS Daily Summary

Daily Weather History Graph

Daily Weather History Graph

Search for Another Location

Airport or City:

Trip Planner

Search our weather history database for the weather conditions in past years. The results will help you decide how hot, cold, wet, or windy it might be!

Date:

Astronomy

Jul. 28, 2013 Rise Set
Actual Time 5:57 AM MDT 8:11 PM MDT
Civil Twilight 5:27 AM MDT 8:40 PM MDT
Nautical Twilight 4:51 AM MDT 9:17 PM MDT
Astronomical Twilight 4:11 AM MDT 9:56 PM MDT
Moon 11:41 PM MDT (7/28) 12:35 PM MDT (7/28)
Length of Visible Light 15h 13m
Length of Day
14h 14m
Waning Gibbous, 60% of the Moon is Illuminated
Jul 28
Waning Gibbous
Jul 29
Last Quarter
Aug 6
New
Aug 14
First Quarter
Aug 20
Full

Hourly Weather History & Observations

Time (MDT) Temp. Dew Point Humidity Pressure Visibility Wind Dir Wind Speed Gust Speed Precip Events Conditions
12:53 AM 64.9 °F 54.0 °F 68% 29.91 in 10.0 mi SSE 4.6 mph - N/A   Mostly Cloudy
1:53 AM 64.0 °F 55.9 °F 75% 29.90 in 10.0 mi SSE 6.9 mph - 0.00 in Rain Light Rain
2:53 AM 61.0 °F 55.9 °F 83% 29.88 in 10.0 mi SE 6.9 mph - 0.01 in Rain Light Rain
3:53 AM 60.1 °F 55.9 °F 86% 29.87 in 10.0 mi SE 5.8 mph - 0.00 in   Overcast
4:53 AM 60.1 °F 57.0 °F 90% 29.87 in 10.0 mi South 3.5 mph - N/A   Clear
5:53 AM 60.1 °F 55.9 °F 86% 29.86 in 10.0 mi SE 3.5 mph - N/A   Clear
6:53 AM 59.0 °F 57.0 °F 93% 29.86 in 9.0 mi SE 5.8 mph - 0.00 in Rain Light Rain
7:53 AM 60.1 °F 57.9 °F 93% 29.86 in 10.0 mi ESE 6.9 mph - 0.01 in   Partly Cloudy
8:14 AM 60.8 °F 57.2 °F 88% 30.03 in 10.0 mi ESE 8.1 mph - N/A   Mostly Cloudy
8:27 AM 60.8 °F 57.2 °F 88% 30.03 in 10.0 mi SE 6.9 mph - N/A   Overcast
8:53 AM 61.0 °F 57.9 °F 90% 29.88 in 10.0 mi ESE 9.2 mph - N/A   Mostly Cloudy
9:00 AM 62.6 °F 57.2 °F 82% 30.02 in 10.0 mi ESE 10.4 mph - N/A   Scattered Clouds
9:53 AM 64.9 °F 57.9 °F 78% 29.87 in 10.0 mi East 6.9 mph - N/A   Partly Cloudy
10:53 AM 68.0 °F 59.0 °F 73% 29.86 in 10.0 mi Calm Calm - N/A   Partly Cloudy
11:53 AM 70.0 °F 57.0 °F 63% 29.85 in 10.0 mi Variable 5.8 mph - N/A   Clear
12:53 PM 75.0 °F 57.0 °F 53% 29.82 in 10.0 mi SSE 6.9 mph - N/A   Clear
1:53 PM 77.0 °F 55.9 °F 48% 29.80 in 10.0 mi ESE 5.8 mph - N/A   Scattered Clouds
2:07 PM 75.2 °F 55.4 °F 50% 29.98 in 10.0 mi South 6.9 mph - N/A   Mostly Cloudy
2:53 PM 77.0 °F 55.0 °F 47% 29.79 in 10.0 mi SSE 5.8 mph - N/A   Partly Cloudy
3:53 PM 77.0 °F 59.0 °F 54% 29.78 in 10.0 mi SSE 9.2 mph - N/A   Clear
4:53 PM 79.0 °F 57.0 °F 47% 29.76 in 10.0 mi SSE 8.1 mph - N/A   Clear
5:53 PM 79.0 °F 57.0 °F 47% 29.78 in 10.0 mi SE 13.8 mph - N/A   Clear
6:53 PM 72.0 °F 60.1 °F 66% 29.84 in 10.0 mi NE 23.0 mph - N/A   Overcast
7:00 PM 71.6 °F 59.0 °F 64% 29.99 in 10.0 mi NE 23.0 mph - N/A   Mostly Cloudy
7:53 PM 69.1 °F 59.0 °F 70% 29.86 in 10.0 mi NE 19.6 mph - N/A   Mostly Cloudy
8:53 PM 68.0 °F 60.1 °F 76% 29.86 in 10.0 mi East 9.2 mph - N/A   Overcast
9:53 PM 66.9 °F 60.1 °F 79% 29.89 in 10.0 mi East 16.1 mph - N/A   Mostly Cloudy
10:53 PM 64.9 °F 60.1 °F 84% 29.90 in 10.0 mi ENE 4.6 mph - N/A   Overcast
11:42 PM 64.4 °F 59.0 °F 83% 30.05 in 10.0 mi SSE 8.1 mph - N/A   Overcast
11:53 PM 64.9 °F 59.0 °F 81% 29.89 in 10.0 mi SSE 6.9 mph - N/A   Overcast